Flag for Malaysia Weather past 2 weeks in Kuching, Malaysia

Now
81 °F

Broken clouds.


Feels Like: 87 °F
Forecast: 76 / 88 °F
Wind: 5 mph from Southeast

Location: Kuching Airport

Current Time: Sep 2, 2015 at 1:06:56 PM

Latest Report: Sep 2, 2015 at 12:00 PM


Visibility: 5 mi

Pressure: 29.92 "Hg

Humidity: 89%

Dew point: 77 °F

Location of KuchingLocation

Historic Weather in Kuching — Graph

°F

Kuching temperature yesterday

Maximum temperature yesterday: 91 °F (at 2:00 PM)
Minimum temperature yesterday: 75 °F (at 5:00 AM)
Average temperature yesterday: 82 °F

Past Weeks' High & Low Weather Summary

 TemperatureHumidityPressure
High93 °F (Aug 20, 2:00 PM)100% (Aug 19, 1:00 AM)29.95 "Hg (Aug 19, 1:00 AM)
Low73 °F (Aug 20, 4:30 AM)44% (Aug 21, 1:30 PM)29.71 "Hg (Aug 29, 4:00 PM)
Average82 °F82%29.83 "Hg
* Reported Aug 18 9:00 AM — Sep 2 9:00 AM, Kuching, Weather by CustomWeather, © 2015

Note: Actual official high and low records may vary slightly from our data, if they occured in-between our weather recording intervals... More about our weather records

Advertising

Kuching weather history for previous 24 hours

 ConditionsComfort  
Time TempWeatherWind HumidityBarometerVisibility
9:00 AM
Wed, Sep 2
77 °FLight rain. Broken clouds.5 mph100%29.89 "Hg4 mi
8:30 AM77 °FLight rain. Broken clouds.3 mph94%29.92 "Hg4 mi
8:00 AM77 °FBroken clouds.3 mph94%29.89 "Hg4 mi
7:30 AM77 °FLight rain. Broken clouds.3 mph94%29.89 "Hg3 mi
7:00 AM75 °FLight rain. Broken clouds.3 mph100%29.86 "Hg3 mi
6:30 AM75 °FLight rain. Partly cloudy.1 mph100%29.86 "Hg3 mi
5:30 AM75 °FThunderstorms. Partly cloudy.5 mph100%29.86 "Hg4 mi
5:00 AM75 °FThunderstorms. Partly cloudy.3 mph100%29.86 "Hg4 mi
4:30 AM77 °FThunderstorms. Partly cloudy.2 mph94%29.86 "Hg4 mi
4:00 AM77 °FThunderstorms. Partly cloudy.3 mph94%29.86 "Hg2 mi
3:30 AM75 °FThunderstorms. Partly cloudy.3 mph100%29.86 "Hg2 mi
3:00 AM77 °FThunderstorms. Partly cloudy.2 mph94%29.86 "Hg2 mi
2:30 AM77 °FThunderstorms. Partly cloudy.6 mph94%29.86 "Hg4 mi
2:00 AM79 °FLight rain. Partly cloudy.3 mph89%29.86 "Hg4 mi
1:30 AM81 °FLight rain. Partly cloudy.2 mph89%29.86 "Hg4 mi
1:00 AM81 °FPartly cloudy.2 mph89%29.86 "Hg5 mi
12:30 AM81 °FPartly cloudy.2 mph89%29.86 "Hg5 mi
12:00 AM81 °FPartly cloudy.3 mph89%29.86 "Hg5 mi
11:30 PM
Tue, Sep 1
81 °FPartly cloudy.5 mph89%29.89 "Hg5 mi
11:00 PM82 °FPartly cloudy.3 mph84%29.86 "Hg5 mi
10:30 PM82 °FPassing clouds.5 mph84%29.86 "Hg5 mi
10:00 PM82 °FPassing clouds.3 mph84%29.86 "Hg5 mi
9:30 PM82 °FPassing clouds.3 mph84%29.83 "Hg5 mi
9:00 PM84 °FPassing clouds.6 mph79%29.83 "Hg5 mi
8:30 PM84 °FPassing clouds.6 mph79%29.83 "Hg4 mi
8:00 PM84 °FPassing clouds.7 mph74%29.80 "Hg4 mi
7:30 PM84 °FPassing clouds.3 mph79%29.80 "Hg4 mi
7:00 PM84 °FPassing clouds.7 mph74%29.77 "Hg4 mi
6:30 PM86 °FPartly sunny.5 mph75%29.77 "Hg4 mi
6:00 PM86 °FPartly sunny.3 mph75%29.77 "Hg4 mi
5:30 PM86 °FBroken clouds.6 mph75%29.77 "Hg4 mi
5:00 PM88 °FScattered showers. Broken clouds.3 mph70%29.77 "Hg4 mi
4:30 PM88 °FScattered showers. Broken clouds.6 mph70%29.77 "Hg4 mi
4:00 PM90 °FBroken clouds.6 mph67%29.74 "Hg4 mi
3:30 PM91 °FBroken clouds.8 mph63%29.77 "Hg4 mi
3:00 PM90 °FBroken clouds.9 mph67%29.77 "Hg3 mi
2:30 PM90 °FBroken clouds.12 mph71%29.77 "Hg3 mi
2:00 PM91 °FBroken clouds.7 mph67%29.77 "Hg3 mi
1:30 PM90 °FBroken clouds.6 mph67%29.80 "Hg3 mi
1:00 PM90 °FBroken clouds.7 mph67%29.83 "Hg3 mi
Weather by CustomWeather, © 2015

See weather overviewHow to use our weather pages